Location: Peyton Hall Observatory
(40.3466°N, 74.6516°W)
Time: 16:18:49
(UTC-04:00)

ISS - All Passes

Search period start: 01 September 2015 00:00
Search period end: 11 September 2015 00:00
Orbit: 400 x 402 km, 51.6° (Epoch: 01 September)

Date Brightness Start Highest point End Pass type
(mag) Time Alt. Az. Time Alt. Az. Time Alt. Az.
01 Sep - 09:05:42 10° SW 09:08:57 77° SE 09:12:13 10° NE daylight
01 Sep - 10:43:13 10° WNW 10:45:41 19° NNW 10:48:09 10° NNE daylight
01 Sep - 12:21:54 10° NNW 12:23:04 11° N 12:24:15 10° NNE daylight
01 Sep - 13:58:04 10° NNW 14:00:28 19° NNE 14:02:53 10° ENE daylight
01 Sep - 15:33:58 10° NW 15:37:14 84° SW 15:40:29 10° SE daylight
02 Sep - 08:12:43 10° SSW 08:15:44 36° SE 08:18:47 10° ENE daylight
02 Sep - 09:49:19 10° W 09:52:12 28° NNW 09:55:05 10° NE daylight
02 Sep - 11:28:02 10° NNW 11:29:26 12° N 11:30:50 10° NNE daylight
02 Sep - 13:05:01 10° NNW 13:06:54 15° NNE 13:08:51 10° NE daylight
02 Sep - 14:40:44 10° NW 14:43:55 50° NNE 14:47:06 10° ESE daylight
02 Sep - 16:17:51 10° W 16:20:06 17° SW 16:22:16 10° S daylight
03 Sep - 07:20:16 10° S 07:22:36 19° SE 07:24:59 10° E daylight
03 Sep - 08:55:38 10° WSW 08:58:47 46° NNW 09:01:58 10° NE daylight
03 Sep - 10:33:58 10° NW 10:35:50 14° NNW 10:37:41 10° NNE daylight
03 Sep - 12:11:53 10° NNW 12:13:18 12° N 12:14:46 10° NE daylight
03 Sep - 13:47:37 10° NW 13:50:32 29° NNE 13:53:27 10° E daylight
03 Sep - 15:23:59 10° WNW 15:26:57 33° SW 15:29:55 10° SSE daylight
04 Sep - 08:02:13 10° SW 08:05:28 89° WNW 08:08:45 10° NE daylight
04 Sep - 09:39:55 10° WNW 09:42:16 18° NNW 09:44:37 10° NNE daylight
04 Sep - 11:18:30 10° NNW 11:19:41 11° N 11:20:52 10° NNE daylight
04 Sep - 12:54:32 10° NNW 12:57:03 20° NNE 12:59:34 10° ENE daylight
04 Sep - 14:30:30 10° WNW 14:33:45 70° SW 14:36:59 10° SE daylight
05 Sep - 07:09:08 10° SSW 07:12:14 43° SE 07:15:22 10° ENE daylight
05 Sep - 08:45:59 10° W 08:48:46 25° NNW 08:51:34 10° NNE daylight
05 Sep - 10:24:43 10° NNW 10:26:03 12° N 10:27:21 10° NNE daylight
05 Sep - 12:01:29 10° NNW 12:03:30 15° NNE 12:05:33 10° NE daylight
05 Sep - 13:37:15 10° NW 13:40:28 58° NNE 13:43:41 10° ESE daylight
05 Sep - 15:14:40 10° W 15:16:35 15° SW 15:18:24 10° SSW daylight
06 Sep - 06:16:32 10° S 06:19:05 22° SE 06:21:41 10° E daylight
06 Sep - 07:52:15 10° WSW 07:55:20 40° NNW 07:58:27 10° NE daylight
06 Sep - 09:30:41 10° NW 09:32:26 14° NNW 09:34:10 10° NNE daylight
06 Sep - 11:08:22 10° NNW 11:09:55 13° N 11:11:29 10° NE daylight
06 Sep - 12:44:06 10° NW 12:47:05 33° NNE 12:50:05 10° E daylight
06 Sep - 14:20:36 10° WNW 14:23:28 28° SW 14:26:17 10° SSE daylight
07 Sep - 05:25:03 10° SSE 05:25:59 11° SE 05:27:02 10° ESE visible
07 Sep - 06:58:45 10° WSW 07:02:00 76° NW 07:05:16 10° NE daylight
07 Sep - 08:36:37 10° WNW 08:38:52 17° NNW 08:41:06 10° NNE daylight
07 Sep - 10:15:05 10° NNW 10:16:18 12° N 10:17:31 10° NNE daylight
07 Sep - 11:51:01 10° NNW 11:53:38 22° NNE 11:56:16 10° ENE daylight
07 Sep - 13:27:04 10° WNW 13:30:17 59° SW 13:33:28 10° SE daylight
08 Sep - 06:05:35 10° SW 06:08:45 52° SE 06:11:57 10° ENE visible
08 Sep - 07:42:39 10° W 07:45:21 23° NNW 07:48:03 10° NNE daylight
08 Sep - 09:21:25 10° NNW 09:22:40 12° N 09:23:55 10° NNE daylight
08 Sep - 10:57:58 10° NNW 11:00:06 16° NNE 11:02:17 10° ENE daylight
08 Sep - 12:33:45 10° NW 12:37:00 68° NE 12:40:15 10° ESE daylight
08 Sep - 14:11:36 10° WSW 14:13:04 12° SW 14:14:26 10° SSW daylight
09 Sep - 05:12:50 10° SSW 05:15:35 25° SE 05:18:22 10° ENE visible
09 Sep - 06:48:51 10° W 06:51:54 36° NNW 06:54:58 10° NE daylight
09 Sep - 08:27:24 10° NW 08:29:03 13° N 08:30:40 10° NNE daylight
09 Sep - 10:04:52 10° NNW 10:06:32 13° N 10:08:12 10° NE daylight
09 Sep - 11:40:35 10° NW 11:43:39 37° NNE 11:46:44 10° E daylight
09 Sep - 13:17:15 10° WNW 13:19:57 24° SW 13:22:38 10° S daylight
10 Sep - 04:20:54 10° SSE 04:22:27 13° SE 04:24:08 10° E visible
10 Sep - 05:55:18 10° WSW 05:58:32 65° NW 06:01:48 10° NE visible
10 Sep - 07:33:20 10° WNW 07:35:28 16° NNW 07:37:35 10° NNE daylight
10 Sep - 09:11:39 10° NNW 09:12:55 12° N 09:14:12 10° NNE daylight
10 Sep - 10:47:30 10° NNW 10:50:13 24° NNE 10:52:57 10° E daylight
10 Sep - 12:23:38 10° WNW 12:26:48 49° SW 12:29:56 10° SE daylight
